Content
SEND FEEDBACK

Daily
Averages
Monthly
Summary
Canada

BLINDMAN, ALBERTA


Home > North America > Canada > Alberta
Elevation: 3150 feet     Latitude: 52 46N     Longitude: 114 29W

WEATHER
 
SELECT A DAY
Number of Records: 133,521;   Date Range: 1/1/95 - 10/20/14
 
SHARE

PRINT THIS DATA

[ ← Previous Day ]
WEATHER ALMANAC - JANUARY 31, 2013
[ Next Day → ]
[ °C ]   °F
Weather ElementAverageHighLow
Temperature15.1 °F28 °F (4:00 pm)-0.6 °F (1:00 am)
Dewpoint10.3 °F23 °F (11:00 pm)-5.4 °F (1:00 am)
Humidity79.5 %91 % (9:00 pm)59 % (2:00 pm)
Barometer30.12 in30.29 in (1:00 am)30.00 in (11:00 pm)
Wind Speed2.5 mph5.8 mph (1:00 am)
Weather ElementAverage
Wind DirectionSSE (154.7 °)

Weather ElementTotal
Precipitation---
Heating Degree Days51.3 (Base 65)
Averaged from 31 records on January 31, 2013
WEATHER CONDITIONS BREAKOUT
WIND DIRECTION BREAKOUT
WEATHER BY HOUR - JANUARY 31, 2013
[ °C ]   °F
Local TimeTemperatureDewpointHumidityBarometerVisibilityWind DirectionWind SpeedGust SpeedPrecipitationEventsConditions
1:00 AM-0.6 °F-5.4 °F80 %30.29 inSSE (160°)5.8 mph
2:00 AM0.0 °F-4.0 °F74 %30.28 inSE (130°)5.8 mph
2:00 AM0.5 °F-4.2 °F81 %30.28 inSE (130°)5.8 mph
3:00 AM1.4 °F-3.5 °F80 %30.26 inSE (130°)5.8 mph
4:00 AM1.9 °F-2.7 °F81 %30.23 inESE (120°)5.8 mph
5:00 AM3.0 °F-1.0 °F74 %30.22 inESE (120°)3.5 mph
5:00 AM3.2 °F-1.3 °F82 %30.22 inESE (120°)3.5 mph
6:00 AM3.7 °F-0.8 °F82 %30.21 inESE (110°)3.5 mph
7:00 AM5.0 °F0.7 °F82 %30.19 inESE (120°)1.2 mph
8:00 AM6.0 °F2.0 °F74 %30.18 inSSE (160°)3.5 mph
8:00 AM6.4 °F1.8 °F81 %30.18 inSSE (160°)3.5 mph
9:00 AM7.9 °F3.0 °F81 %30.16 inSE (130°)2.3 mph
10:00 AM10.2 °F4.8 °F79 %30.16 inSE (130°)2.3 mph
11:00 AM13.0 °F8.0 °F70 %30.13 inSE (130°)2.3 mph
11:00 AM13.3 °F7.7 °F78 %30.13 inSE (130°)2.3 mph
12:00 PM17.1 °F9.7 °F73 %30.12 inWest (260°)1.2 mph
1:00 PM21.6 °F13.5 °F71 %30.08 inSE (130°)1.2 mph
2:00 PM24.0 °F16.0 °F59 %30.06 inWSW (240°)1.2 mph
2:00 PM24.1 °F15.6 °F70 %30.06 inWSW (240°)1.2 mph
3:00 PM27.0 °F19.2 °F73 %30.02 inSSE (150°)3.5 mph
4:00 PM28.0 °F21.7 °F77 %30.02 inEast (80°)1.2 mph
5:00 PM27.0 °F22.0 °F72 %30.02 inSSE (160°)1.2 mph
5:00 PM26.6 °F21.6 °F81 %30.02 inSSE (160°)1.2 mph
6:00 PM23.9 °F20.8 °F88 %30.02 inSE (140°)1.2 mph
7:00 PM24.3 °F21.4 °F89 %30.02 inNNW (340°)1.2 mph
8:00 PM25.0 °F22.0 °F84 %30.01 inWSW (240°)1.2 mph
8:00 PM24.6 °F22.1 °F90 %30.01 inWSW (240°)1.2 mph
9:00 PM23.7 °F21.6 °F91 %30.01 inWest (260°)2.3 mph
10:00 PM25.0 °F22.8 °F91 %30.01 inNNE (20°)2.3 mph
11:00 PM25.0 °F23.0 °F87 %30.00 inCalm
11:00 PM24.8 °F22.6 °F91 %30.00 inCalm
Hourly data recorded from CWRM, located miles away from Blindman, Alberta







STORIES FROM OUR PARTNERS